Location: Boiro
(42.6475°N, 8.8834°W)
Time: 23:35:46
(UTC+01:00)

Transit 2A - Pass Details

Date: 06 December 2021
Orbit: 591 x 967 km, 66.7° (Epoch: 18 January)

Event Time Altitude Azimuth Distance (km) Brightness Sun altitude
Rises 10:37:25 0° 324° (NW) 3,663 8.9 14.0°
Reaches altitude 10° 10:40:06 10° 318° (NW) 2,707 8.3 14.4°
Maximum altitude 10:46:08 46° 248° (WSW) 1,244 7.2 15.1°
Drops below altitude 10° 10:51:50 10° 177° (S) 2,559 9.8 15.7°
Sets 10:54:20 0° 171° (S) 3,445 10.5 16.0°
